Location: Vale
(35.4830°N, 81.3830°W)
Time: 05:02:58
(UTC-05:00)

SR - All Passes

Search period start: 15 December 2017 00:00
Search period end: 25 December 2017 00:00
Orbit: 584 x 873 km, 66.7° (Epoch: 14 December)

Date Brightness Start Highest point End Pass type
(mag) Time Alt. Az. Time Alt. Az. Time Alt. Az.
15 Dec - 03:58:29 10° NNE 04:00:01 12° NE 04:01:33 10° ENE visible
15 Dec - 05:38:02 10° NNW 05:42:24 69° WSW 05:47:03 10° SSE visible
15 Dec - 18:26:04 10° SE 18:28:29 14° ESE 18:30:49 10° ENE visible
15 Dec - 20:05:34 10° SW 20:10:09 49° WNW 20:14:26 10° NNE visible
16 Dec - 04:48:40 10° NNW 04:52:56 50° ENE 04:57:26 10° SE visible
16 Dec - 06:32:26 10° WNW 06:34:34 13° WSW 06:36:47 10° SW visible
16 Dec - 19:15:56 10° SSW 19:20:40 71° ESE 19:25:04 10° NNE visible
16 Dec - 21:01:31 10° WNW 21:03:04 12° NW 21:04:36 10° NNW visible
17 Dec - 03:59:49 10° N 04:03:19 23° NE 04:06:57 10° ESE visible
17 Dec - 05:41:24 10° NW 05:45:18 31° WSW 05:49:26 10° S visible
17 Dec - 18:27:10 10° S 18:31:17 30° ESE 18:35:11 10° NE visible
17 Dec - 20:09:31 10° WSW 20:13:16 24° NW 20:16:51 10° N visible
18 Dec - 03:12:17 10° NNE 03:13:30 11° NE 03:14:43 10° ENE night (unlit)
18 Dec - 04:51:33 10° NNW 04:55:55 74° WSW 05:00:37 10° SSE visible
18 Dec - 17:39:57 10° SE 17:42:02 13° ESE 17:44:05 10° E visible
18 Dec - 19:19:05 10° SW 19:23:39 52° WNW 19:27:58 10° NNE visible
19 Dec - 04:02:12 10° NNW 04:06:27 47° ENE 04:10:56 10° SE visible
19 Dec - 05:45:41 10° WNW 05:48:07 14° WSW 05:50:37 10° SW visible
19 Dec - 18:29:30 10° SSW 18:34:11 66° ESE 18:38:34 10° NNE visible
19 Dec - 20:14:45 10° WNW 20:16:33 12° NW 20:18:20 10° NNW visible
20 Dec - 03:13:24 10° N 03:16:49 22° NE 03:20:22 10° ESE night (unlit)
20 Dec - 04:54:51 10° NW 04:58:50 33° WSW 05:03:04 10° S visible
20 Dec - 17:40:50 10° SSE 17:44:49 28° ESE 17:48:37 10° NE visible
20 Dec - 19:22:58 10° WSW 19:26:46 25° NW 19:30:25 10° N visible
21 Dec - 02:26:12 10° NE 02:26:59 10° NE 02:27:46 10° ENE night (unlit)
21 Dec - 04:05:02 10° NNW 04:09:27 79° WSW 04:14:11 10° SSE visible
21 Dec - 16:53:52 10° SE 16:55:34 12° ESE 16:57:14 10° E daylight
21 Dec - 18:32:35 10° SW 18:37:10 56° WNW 18:41:29 10° NNE visible
22 Dec - 03:15:44 10° NNW 03:19:57 44° ENE 03:24:26 10° SE night (unlit)
22 Dec - 04:58:59 10° WNW 05:01:39 15° WSW 05:04:25 10° SW night (unlit)
22 Dec - 17:43:05 10° SSW 17:47:43 62° ESE 17:52:03 10° NE visible
22 Dec - 19:28:01 10° WNW 19:30:03 13° NW 19:32:02 10° NNW visible
23 Dec - 02:26:58 10° N 02:30:19 21° NE 02:33:47 10° ESE night (unlit)
23 Dec - 04:08:17 10° NW 04:12:22 35° WSW 04:16:41 10° S night (unlit)
23 Dec - 16:54:29 10° SSE 16:58:21 26° ESE 17:02:02 10° NE daylight
23 Dec - 18:36:24 10° WSW 18:40:16 26° WNW 18:43:58 10° N visible
24 Dec - 03:18:31 10° NNW 03:22:58 85° WSW 03:27:44 10° SSE night (unlit)
24 Dec - 16:07:56 10° ESE 16:09:07 11° ESE 16:10:17 10° E daylight
24 Dec - 17:46:06 10° SW 17:50:41 59° WNW 17:55:01 10° NNE visible
